• In Österreich
  • Länderverzeichnis
  • Für 7 Tage
  • Wassertemperatur
  • Satellitenkarten
  • Wetterkarte
  • News
  • Widgets
  • user-avatar
    Anmelden

    Stündliche Wetter Gagra

    Heute, 21 September, Freitag

    Zeit Temperatur Niederschläge Wind Luftdruck Luftfeuchtigkeit
    00:00 +20°C° 0 mm 1 m/S 736 mmHg 65%
    01:00 +19°C° 0 mm 1 m/S 736 mmHg 64%
    02:00 +19°C° 0 mm 1 m/S 736 mmHg 64%
    03:00 +19°C° 0 mm 1 m/S 736 mmHg 64%
    04:00 +19°C° 0 mm 1 m/S 736 mmHg 63%
    05:00 +19°C° 0 mm 1 m/S 736 mmHg 63%
    06:00 +19°C° 0 mm 1 m/S 735 mmHg 63%
    07:00 +21°C° 0 mm 1 m/S 736 mmHg 58%
    08:00 +24°C° 0 mm 1 m/S 736 mmHg 53%
    09:00 +25°C° 0 mm 0 m/S 736 mmHg 49%
    10:00 +28°C° 0 mm 1 m/S 736 mmHg 47%
    11:00 +28°C° 0 mm 1 m/S 736 mmHg 46%
    12:00 +29°C° 0 mm 2 m/S 736 mmHg 44%
    13:00 +29°C° 0 mm 2 m/S 736 mmHg 46%
    14:00 +29°C° 0 mm 2 m/S 736 mmHg 48%
    15:00 +29°C° 0 mm 3 m/S 735 mmHg 50%
    16:00 +27°C° 0 mm 3 m/S 735 mmHg 59%
    17:00 +25°C° 0 mm 3 m/S 735 mmHg 67%
    18:00 +22°C° 0 mm 3 m/S 735 mmHg 76%
    19:00 +21°C° 0 mm 2 m/S 735 mmHg 74%
    20:00 +20°C° 0 mm 2 m/S 735 mmHg 73%
    21:00 +20°C° 0 mm 2 m/S 736 mmHg 72%
    22:00 +19°C° 0 mm 2 m/S 736 mmHg 70%
    23:00 +19°C° 0 mm 2 m/S 735 mmHg 69%

    Morgen, 22 September, Samstag

    Zeit Temperatur Niederschläge Wind Luftdruck Luftfeuchtigkeit
    00:00 +20°C° 0 mm 1 m/S 735 mmHg 67%
    01:00 +20°C° 0 mm 1 m/S 735 mmHg 68%
    02:00 +20°C° 0 mm 1 m/S 735 mmHg 70%
    03:00 +20°C° 0 mm 1 m/S 735 mmHg 71%
    04:00 +20°C° 0 mm 1 m/S 735 mmHg 71%
    05:00 +20°C° 0 mm 1 m/S 735 mmHg 71%
    06:00 +20°C° 0 mm 1 m/S 735 mmHg 71%
    07:00 +22°C° 0 mm 1 m/S 735 mmHg 64%
    08:00 +22°C° 0 mm 0 m/S 736 mmHg 58%
    09:00 +25°C° 0 mm 0 m/S 736 mmHg 51%
    10:00 +28°C° 0 mm 1 m/S 736 mmHg 49%
    11:00 +28°C° 0 mm 1 m/S 736 mmHg 47%
    12:00 +29°C° 0 mm 2 m/S 736 mmHg 46%
    13:00 +29°C° 0 mm 2 m/S 735 mmHg 49%
    14:00 +28°C° 0 mm 2 m/S 735 mmHg 53%
    15:00 +28°C° 0 mm 2 m/S 735 mmHg 56%
    16:00 +26°C° 0.1 mm 2 m/S 735 mmHg 64%
    17:00 +24°C° 0.1 mm 2 m/S 735 mmHg 73%
    18:00 +23°C° 0.1 mm 2 m/S 735 mmHg 81%
    19:00 +21°C° 0.2 mm 2 m/S 735 mmHg 81%
    20:00 +21°C° 0.2 mm 2 m/S 735 mmHg 82%
    21:00 +21°C° 0.2 mm 1 m/S 735 mmHg 82%
    22:00 +21°C° 0 mm 1 m/S 735 mmHg 83%
    23:00 +21°C° 0 mm 1 m/S 735 mmHg 83%

    übermorgen, 23 September, Sonntag

    Zeit Temperatur Niederschläge Wind Luftdruck Luftfeuchtigkeit
    00:00 +20°C° 0 mm 1 m/S 735 mmHg 84%
    01:00 +20°C° 0 mm 1 m/S 735 mmHg 84%
    02:00 +20°C° 0 mm 1 m/S 735 mmHg 83%
    03:00 +20°C° 0 mm 1 m/S 735 mmHg 83%
    04:00 +19°C° 0 mm 1 m/S 735 mmHg 81%
    05:00 +19°C° 0 mm 1 m/S 735 mmHg 78%
    06:00 +19°C° 0 mm 1 m/S 735 mmHg 76%
    07:00 +21°C° 0 mm 1 m/S 735 mmHg 70%
    08:00 +23°C° 0 mm 1 m/S 736 mmHg 65%
    09:00 +25°C° 0 mm 1 m/S 736 mmHg 59%
    10:00 +25°C° 0.2 mm 2 m/S 736 mmHg 58%
    11:00 +26°C° 0.2 mm 2 m/S 736 mmHg 56%
    12:00 +27°C° 0.2 mm 2 m/S 736 mmHg 55%
    13:00 +26°C° 0.4 mm 2 m/S 736 mmHg 60%
    14:00 +26°C° 0.4 mm 2 m/S 736 mmHg 66%
    15:00 +25°C° 0.4 mm 2 m/S 736 mmHg 71%
    16:00 +24°C° 0.1 mm 2 m/S 736 mmHg 77%
    17:00 +23°C° 0.1 mm 2 m/S 736 mmHg 83%
    18:00 +20°C° 0.1 mm 2 m/S 736 mmHg 90%
    19:00 +20°C° 0.3 mm 2 m/S 736 mmHg 90%
    20:00 +20°C° 0.3 mm 2 m/S 736 mmHg 90%
    21:00 +19°C° 0.3 mm 2 m/S 737 mmHg 90%
    22:00 +19°C° 0.6 mm 2 m/S 737 mmHg 90%
    23:00 +19°C° 0.6 mm 2 m/S 737 mmHg 90%

    24 September, Montag

    Zeit Temperatur Niederschläge Wind Luftdruck Luftfeuchtigkeit
    00:00 +18°C° 0.6 mm 2 m/S 737 mmHg 90%
    01:00 +18°C° 0.7 mm 2 m/S 737 mmHg 90%
    02:00 +18°C° 0.7 mm 3 m/S 737 mmHg 89%
    03:00 +18°C° 0.7 mm 3 m/S 737 mmHg 89%
    04:00 +18°C° 0.5 mm 3 m/S 737 mmHg 89%
    05:00 +18°C° 0.5 mm 3 m/S 737 mmHg 89%
    06:00 +18°C° 0.5 mm 3 m/S 737 mmHg 89%
    07:00 +18°C° 0.1 mm 3 m/S 737 mmHg 86%
    08:00 +19°C° 0.1 mm 3 m/S 737 mmHg 82%
    09:00 +20°C° 0.1 mm 3 m/S 738 mmHg 79%
    10:00 +21°C° 0.1 mm 3 m/S 737 mmHg 74%
    11:00 +22°C° 0.1 mm 3 m/S 737 mmHg 68%
    12:00 +24°C° 0.1 mm 3 m/S 737 mmHg 63%
    13:00 +24°C° 0 mm 3 m/S 737 mmHg 63%
    14:00 +24°C° 0 mm 3 m/S 737 mmHg 64%
    15:00 +24°C° 0 mm 3 m/S 737 mmHg 64%
    16:00 +22°C° 0 mm 3 m/S 736 mmHg 72%
    17:00 +20°C° 0 mm 2 m/S 736 mmHg 79%
    18:00 +19°C° 0 mm 2 m/S 736 mmHg 86%
    19:00 +18°C° 0 mm 3 m/S 736 mmHg 87%
    20:00 +18°C° 0 mm 3 m/S 736 mmHg 88%
    21:00 +17°C° 0 mm 3 m/S 735 mmHg 89%
    22:00 +17°C° 0 mm 4 m/S 735 mmHg 81%
    23:00 +15°C° 0 mm 4 m/S 734 mmHg 73%

    25 September, Dienstag

    Zeit Temperatur Niederschläge Wind Luftdruck Luftfeuchtigkeit
    00:00 +15°C° 0 mm 4 m/S 734 mmHg 66%
    01:00 +15°C° 0 mm 4 m/S 734 mmHg 63%
    02:00 +15°C° 0 mm 4 m/S 734 mmHg 60%
    03:00 +15°C° 0 mm 4 m/S 734 mmHg 57%
    04:00 +16°C° 0 mm 3 m/S 734 mmHg 58%
    05:00 +16°C° 0 mm 3 m/S 734 mmHg 58%
    06:00 +16°C° 0 mm 3 m/S 734 mmHg 59%
    07:00 +19°C° 0 mm 2 m/S 734 mmHg 55%
    08:00 +21°C° 0 mm 2 m/S 734 mmHg 51%
    09:00 +24°C° 0 mm 2 m/S 734 mmHg 47%
    10:00 +25°C° 0 mm 2 m/S 734 mmHg 45%
    11:00 +26°C° 0 mm 1 m/S 734 mmHg 44%
    12:00 +27°C° 0 mm 1 m/S 734 mmHg 42%
    13:00 +27°C° 0 mm 2 m/S 734 mmHg 44%
    14:00 +27°C° 0 mm 2 m/S 734 mmHg 45%
    15:00 +27°C° 0 mm 2 m/S 734 mmHg 47%
    16:00 +25°C° 0 mm 3 m/S 735 mmHg 57%
    17:00 +21°C° 0 mm 3 m/S 735 mmHg 66%
    18:00 +19°C° 0 mm 3 m/S 735 mmHg 76%
    19:00 +19°C° 0 mm 3 m/S 736 mmHg 76%
    20:00 +18°C° 0 mm 3 m/S 736 mmHg 75%
    21:00 +17°C° 0 mm 3 m/S 736 mmHg 75%
    22:00 +17°C° 0.1 mm 3 m/S 736 mmHg 74%
    23:00 +17°C° 0.1 mm 3 m/S 736 mmHg 73%

    26 September, Mittwoch

    Zeit Temperatur Niederschläge Wind Luftdruck Luftfeuchtigkeit
    00:00 +17°C° 0.1 mm 4 m/S 736 mmHg 72%
    01:00 +17°C° 0.1 mm 4 m/S 737 mmHg 74%
    02:00 +17°C° 0.1 mm 4 m/S 737 mmHg 76%
    03:00 +17°C° 0.1 mm 4 m/S 737 mmHg 79%
    04:00 +17°C° 0.3 mm 3 m/S 737 mmHg 81%
    05:00 +17°C° 0.3 mm 3 m/S 737 mmHg 82%
    06:00 +17°C° 0.3 mm 3 m/S 737 mmHg 84%
    07:00 +17°C° 1 mm 3 m/S 737 mmHg 86%
    08:00 +17°C° 1 mm 3 m/S 737 mmHg 87%
    09:00 +17°C° 1 mm 3 m/S 737 mmHg 89%
    10:00 +17°C° 0.5 mm 3 m/S 738 mmHg 87%
    11:00 +18°C° 0.5 mm 3 m/S 738 mmHg 85%
    12:00 +18°C° 0.5 mm 3 m/S 738 mmHg 83%
    13:00 +18°C° 0.2 mm 3 m/S 738 mmHg 82%
    14:00 +18°C° 0.2 mm 3 m/S 738 mmHg 81%
    15:00 +19°C° 0.2 mm 3 m/S 738 mmHg 79%
    16:00 +18°C° 0.1 mm 3 m/S 738 mmHg 81%
    17:00 +18°C° 0.1 mm 3 m/S 738 mmHg 82%
    18:00 +17°C° 0.1 mm 3 m/S 738 mmHg 83%
    19:00 +17°C° 0 mm 3 m/S 738 mmHg 83%
    20:00 +17°C° 0 mm 3 m/S 738 mmHg 83%
    21:00 +16°C° 0 mm 3 m/S 738 mmHg 84%
    22:00 +16°C° 0.1 mm 3 m/S 738 mmHg 83%
    23:00 +16°C° 0.1 mm 2 m/S 738 mmHg 83%
    Mehr zeigen